• In Russia
  • List of Countries
  • For 7 days
  • Water Temperature
  • Satellite Maps
  • Weather Map
  • Weather Widgets
  • user-avatar
    Login

    Hourly Weather Hudzhan

    Today, 20 January, Saturday

    Time Temperature Precipitation Wind Pressure Humidity
    00:00 +7°C° 0 mm 6 mps 726 mmHg 35%
    01:00 +5°C° 0 mm 6 mps 726 mmHg 36%
    02:00 +6°C° 0 mm 5 mps 726 mmHg 36%
    03:00 +6°C° 0 mm 5 mps 725 mmHg 36%
    04:00 +6°C° 0 mm 5 mps 725 mmHg 36%
    05:00 +6°C° 0 mm 5 mps 725 mmHg 37%
    06:00 +6°C° 0 mm 5 mps 725 mmHg 36%
    07:00 +6°C° 0 mm 5 mps 724 mmHg 35%
    08:00 +6°C° 0 mm 5 mps 724 mmHg 35%
    09:00 +8°C° 0 mm 5 mps 724 mmHg 33%
    10:00 +10°C° 0 mm 6 mps 724 mmHg 31%
    11:00 +13°C° 0 mm 6 mps 723 mmHg 29%
    12:00 +14°C° 0 mm 6 mps 723 mmHg 29%
    13:00 +14°C° 0 mm 6 mps 722 mmHg 28%
    14:00 +15°C° 0 mm 6 mps 722 mmHg 28%
    15:00 +14°C° 0 mm 5 mps 722 mmHg 29%
    16:00 +13°C° 0 mm 5 mps 721 mmHg 29%
    17:00 +12°C° 0 mm 5 mps 721 mmHg 30%
    18:00 +11°C° 0 mm 4 mps 721 mmHg 29%
    19:00 +11°C° 0 mm 4 mps 721 mmHg 28%
    20:00 +10°C° 0 mm 4 mps 721 mmHg 27%
    21:00 +10°C° 0 mm 4 mps 720 mmHg 26%
    22:00 +10°C° 0 mm 4 mps 720 mmHg 25%
    23:00 +8°C° 0 mm 4 mps 720 mmHg 23%

    Tomorrow, 21 January, Sunday

    Time Temperature Precipitation Wind Pressure Humidity
    00:00 +8°C° 0 mm 4 mps 720 mmHg 23%
    01:00 +8°C° 0 mm 4 mps 719 mmHg 23%
    02:00 +8°C° 0 mm 4 mps 719 mmHg 23%
    03:00 +9°C° 0 mm 3 mps 719 mmHg 22%
    04:00 +9°C° 0 mm 3 mps 719 mmHg 22%
    05:00 +8°C° 0 mm 3 mps 719 mmHg 21%
    06:00 +8°C° 0 mm 3 mps 719 mmHg 21%
    07:00 +8°C° 0 mm 3 mps 719 mmHg 21%
    08:00 +8°C° 0 mm 3 mps 719 mmHg 20%
    09:00 +10°C° 0 mm 3 mps 719 mmHg 20%
    10:00 +12°C° 0 mm 4 mps 719 mmHg 20%
    11:00 +14°C° 0 mm 4 mps 719 mmHg 20%
    12:00 +15°C° 0 mm 4 mps 719 mmHg 20%
    13:00 +17°C° 0 mm 4 mps 718 mmHg 20%
    14:00 +17°C° 0 mm 4 mps 718 mmHg 20%
    15:00 +16°C° 0 mm 3 mps 718 mmHg 21%
    16:00 +14°C° 0 mm 3 mps 718 mmHg 23%
    17:00 +14°C° 0 mm 2 mps 718 mmHg 24%
    18:00 +13°C° 0 mm 2 mps 719 mmHg 24%
    19:00 +12°C° 0 mm 2 mps 719 mmHg 24%
    20:00 +10°C° 0 mm 2 mps 719 mmHg 24%
    21:00 +9°C° 0 mm 2 mps 720 mmHg 24%
    22:00 +9°C° 0 mm 2 mps 720 mmHg 23%
    23:00 +8°C° 0 mm 2 mps 720 mmHg 22%

    Day after tomorrow, 22 January, Monday

    Time Temperature Precipitation Wind Pressure Humidity
    00:00 +9°C° 0 mm 1 mps 720 mmHg 23%
    01:00 +8°C° 0 mm 1 mps 720 mmHg 23%
    02:00 +8°C° 0 mm 1 mps 720 mmHg 23%
    03:00 +7°C° 0 mm 1 mps 720 mmHg 24%
    04:00 +7°C° 0 mm 1 mps 720 mmHg 25%
    05:00 +6°C° 0 mm 1 mps 720 mmHg 26%
    06:00 +6°C° 0 mm 1 mps 721 mmHg 28%
    07:00 +6°C° 0 mm 1 mps 721 mmHg 30%
    08:00 +6°C° 0 mm 1 mps 721 mmHg 32%
    09:00 +8°C° 0 mm 1 mps 721 mmHg 30%
    10:00 +9°C° 0 mm 1 mps 722 mmHg 28%
    11:00 +11°C° 0 mm 1 mps 722 mmHg 27%
    12:00 +12°C° 0 mm 1 mps 721 mmHg 26%
    13:00 +12°C° 0 mm 1 mps 721 mmHg 26%
    14:00 +13°C° 0 mm 1 mps 721 mmHg 26%
    15:00 +12°C° 0 mm 1 mps 721 mmHg 29%
    16:00 +11°C° 0 mm 1 mps 721 mmHg 33%
    17:00 +11°C° 0 mm 1 mps 721 mmHg 37%
    18:00 +10°C° 0 mm 1 mps 721 mmHg 39%
    19:00 +8°C° 0 mm 0 mps 722 mmHg 41%
    20:00 +7°C° 0 mm 0 mps 722 mmHg 43%
    21:00 +8°C° 0 mm 1 mps 722 mmHg 42%
    22:00 +8°C° 0 mm 1 mps 722 mmHg 42%
    23:00 +7°C° 0 mm 1 mps 722 mmHg 42%

    23 January, Tuesday

    Time Temperature Precipitation Wind Pressure Humidity
    00:00 +7°C° 0 mm 1 mps 722 mmHg 41%
    01:00 +7°C° 0 mm 1 mps 721 mmHg 41%
    02:00 +7°C° 0 mm 1 mps 721 mmHg 41%
    03:00 +6°C° 0 mm 1 mps 721 mmHg 41%
    04:00 +6°C° 0 mm 1 mps 721 mmHg 41%
    05:00 +6°C° 0 mm 1 mps 721 mmHg 41%
    06:00 +6°C° 0 mm 1 mps 721 mmHg 40%
    07:00 +6°C° 0 mm 1 mps 721 mmHg 39%
    08:00 +6°C° 0 mm 1 mps 721 mmHg 38%
    09:00 +7°C° 0 mm 2 mps 721 mmHg 34%
    10:00 +9°C° 0 mm 2 mps 721 mmHg 30%
    11:00 +12°C° 0 mm 2 mps 721 mmHg 27%
    12:00 +12°C° 0 mm 2 mps 721 mmHg 26%
    13:00 +13°C° 0 mm 2 mps 721 mmHg 26%
    14:00 +13°C° 0 mm 2 mps 720 mmHg 25%
    15:00 +13°C° 0 mm 2 mps 720 mmHg 27%
    16:00 +12°C° 0 mm 2 mps 720 mmHg 30%
    17:00 +11°C° 0 mm 1 mps 720 mmHg 32%
    18:00 +10°C° 0 mm 1 mps 720 mmHg 34%
    19:00 +9°C° 0 mm 1 mps 721 mmHg 35%
    20:00 +8°C° 0 mm 1 mps 721 mmHg 37%
    21:00 +8°C° 0 mm 1 mps 721 mmHg 36%
    22:00 +8°C° 0 mm 1 mps 721 mmHg 35%
    23:00 +6°C° 0 mm 2 mps 721 mmHg 35%

    24 January, Wednesday

    Time Temperature Precipitation Wind Pressure Humidity
    00:00 +6°C° 0 mm 2 mps 721 mmHg 34%
    01:00 +6°C° 0 mm 2 mps 721 mmHg 32%
    02:00 +6°C° 0 mm 2 mps 721 mmHg 31%
    03:00 +6°C° 0 mm 2 mps 721 mmHg 30%
    04:00 +6°C° 0 mm 2 mps 721 mmHg 29%
    05:00 +5°C° 0 mm 2 mps 721 mmHg 29%
    06:00 +5°C° 0 mm 2 mps 721 mmHg 28%
    07:00 +5°C° 0 mm 2 mps 721 mmHg 28%
    08:00 +5°C° 0 mm 2 mps 721 mmHg 27%
    09:00 +7°C° 0 mm 2 mps 721 mmHg 25%
    10:00 +10°C° 0 mm 2 mps 721 mmHg 24%
    11:00 +13°C° 0 mm 2 mps 721 mmHg 22%
    12:00 +13°C° 0 mm 2 mps 721 mmHg 21%
    13:00 +14°C° 0 mm 2 mps 720 mmHg 21%
    14:00 +15°C° 0 mm 2 mps 720 mmHg 21%
    15:00 +14°C° 0 mm 2 mps 720 mmHg 24%
    16:00 +13°C° 0 mm 1 mps 720 mmHg 27%
    17:00 +12°C° 0 mm 1 mps 720 mmHg 29%
    18:00 +11°C° 0 mm 1 mps 721 mmHg 30%
    19:00 +9°C° 0 mm 2 mps 721 mmHg 31%
    20:00 +8°C° 0 mm 2 mps 721 mmHg 31%
    21:00 +8°C° 0 mm 2 mps 721 mmHg 32%
    22:00 +8°C° 0 mm 2 mps 721 mmHg 32%
    23:00 +7°C° 0 mm 3 mps 721 mmHg 32%

    25 January, Thursday

    Time Temperature Precipitation Wind Pressure Humidity
    00:00 +7°C° 0 mm 3 mps 721 mmHg 32%
    01:00 +7°C° 0 mm 3 mps 721 mmHg 32%
    02:00 +7°C° 0 mm 3 mps 721 mmHg 32%
    03:00 +7°C° 0 mm 3 mps 721 mmHg 32%
    04:00 +7°C° 0 mm 3 mps 721 mmHg 31%
    05:00 +7°C° 0 mm 3 mps 721 mmHg 31%
    06:00 +7°C° 0 mm 3 mps 721 mmHg 30%
    07:00 +7°C° 0 mm 3 mps 721 mmHg 30%
    08:00 +7°C° 0 mm 3 mps 721 mmHg 29%
    09:00 +9°C° 0 mm 3 mps 721 mmHg 27%
    10:00 +10°C° 0 mm 3 mps 722 mmHg 25%
    11:00 +12°C° 0 mm 3 mps 722 mmHg 23%
    12:00 +13°C° 0 mm 3 mps 721 mmHg 23%
    13:00 +13°C° 0 mm 3 mps 721 mmHg 23%
    14:00 +13°C° 0 mm 3 mps 721 mmHg 23%
    15:00 +13°C° 0 mm 3 mps 721 mmHg 25%
    16:00 +13°C° 0 mm 2 mps 721 mmHg 28%
    17:00 +13°C° 0 mm 2 mps 721 mmHg 30%
    18:00 +12°C° 0 mm 2 mps 722 mmHg 31%
    19:00 +12°C° 0 mm 2 mps 722 mmHg 32%
    20:00 +10°C° 0 mm 2 mps 722 mmHg 34%
    21:00 +10°C° 0 mm 2 mps 722 mmHg 34%
    22:00 +10°C° 0 mm 2 mps 722 mmHg 35%
    23:00 +10°C° 0 mm 2 mps 722 mmHg 36%
    Show more